CUTE-1 (CO-55) 1 27844U 03031E 26255.00270449 .00000180 00000+0 96670-4 0 9998 2 27844 98.6770 262.4840 0008493 297.1642 62.8671 14.24379869204037 CUBESAT XI-IV (CO-57) 1 27848U 03031J 26254.54295535 .00000149 00000+0 84349-4 0 9998 2 27848 98.6802 261.6728 0008662 319.6234 40.4301 14.23658642203666 CUBESAT XI-V 1 28895U 05043F 26255.23195817 .00000862 00000+0 14297-3 0 9991 2 28895 98.3099 52.7515 0012812 291.2875 68.6964 14.72820621114564 CUTE-1.7+APD II (CO-65) 1 32785U 08021C 26255.20136047 .00002901 00000+0 18181-3 0 9992 2 32785 97.8369 238.5198 0010550 92.3685 267.8752 15.10142030998324 CANX-2 1 32790U 08021H 26255.20143984 .00002092 00000+0 14731-3 0 9994 2 32790 97.8737 236.7490 0011979 106.8958 253.3582 15.06132543997901 SEEDS II (CO-66) 1 32791U 08021J 26255.27624132 .00014242 00000+0 41526-3 0 9993 2 32791 97.7561 257.5410 0003315 46.9322 313.2198 15.35478283000633 SWISSCUBE 1 35932U 09051B 26255.19125442 .00000657 00000+0 13900-3 0 9998 2 35932 98.3945 164.5631 0005841 311.2141 48.8556 14.62619689901872 BEESAT-1 1 35933U 09051C 26254.69908161 .00000549 00000+0 11974-3 0 9999 2 35933 98.3872 163.5146 0004648 332.7179 27.3777 14.61835697901825 ITUPSAT1 1 35935U 09051E 26255.17703775 .00000510 00000+0 11498-3 0 9998 2 35935 98.3952 163.0967 0007046 339.1682 20.9230 14.60547800901432 TISAT 1 1 36799U 10035E 26255.30593539 .00016781 00000+0 49881-3 0 9995 2 36799 98.0773 209.8315 0000951 33.8466 326.2835 15.34845270881053 STRAND-1 1 39090U 13009E 26255.08183470 .00000163 00000+0 69267-4 0 9998 2 39090 98.3969 73.2078 0008141 339.0402 21.0450 14.37205401709543 BRITE-AUSTRIA 1 39091U 13009F 26255.06304167 .00000098 00000+0 47801-4 0 9992 2 39091 98.4046 72.3795 0009876 347.7117 12.3827 14.36570644709524 NEE-01 PEGASO 1 39151U 13018B 26254.94071975 .00001756 00000+0 17039-3 0 9994 2 39151 98.1348 42.0438 0011398 234.9557 125.0593 14.94009152723655 POPACS 2 1 39269U 13055E 26255.12361324 .00009349 00000+0 15550-3 0 9998 2 39269 80.9908 44.4636 0405826 274.1271 81.3670 14.93823158676188 POPACS 3 1 39270U 13055F 26254.93249491 .00007433 00000+0 17417-3 0 9994 2 39270 81.0012 135.0158 0546434 165.2022 196.5929 14.57380004651186 ZACUBE-1 (TSHEPISOSAT) 1 39417U 13066B 26254.84455247 .00004211 00000+0 32256-3 0 9996 2 39417 97.8127 217.6218 0040115 323.3488 36.4993 15.01781916693730 WNISAT-1 1 39423U 13066H 26255.15483426 .00000333 00000+0 69680-4 0 9991 2 39423 97.7331 38.2015 0161756 318.3639 40.5337 14.58190678679408 TRITON-1 1 39427U 13066M 26255.19908059 .00002032 00000+0 24606-3 0 9999 2 39427 97.8161 162.9994 0088432 311.4536 47.9105 14.82035599686975 GOMX-1 1 39430U 13066Q 26255.27068492 .00001519 00000+0 23235-3 0 9996 2 39430 97.6439 90.2451 0128372 156.9967 203.7060 14.69687303682704 CUBEBUG-2 (LO-74) 1 39440U 13066AA 26254.86183588 .00002666 00000+0 24588-3 0 9991 2 39440 97.8974 204.2693 0058533 99.6019 261.1821 14.94246213689932 NEE-02 KRYSAOR 1 39441U 13066AB 26255.29623659 .00001155 00000+0 13048-3 0 9999 2 39441 97.8932 193.9250 0066530 142.8469 217.7378 14.86899407689143 FUNCUBE-1 (AO-73) 1 39444U 13066AE 26254.93088509 .00005617 00000+0 34015-3 0 9995 2 39444 97.8376 228.3003 0033468 268.4236 91.3159 15.10560256692757 UWE-3 1 39446U 13066AG 26254.82629977 .00003815 00000+0 32433-3 0 9995 2 39446 97.8786 211.5510 0049310 32.6691 327.7564 14.97529230690542 BRITE-CA1 (TORONTO) 1 40020U 14033L 26255.13865700 .00000436 00000+0 73123-4 0 9999 2 40020 97.9852 22.5213 0078349 359.5828 0.5301 14.72810461655014 DUCHIFAT-1 1 40021U 14033M 26255.15481579 .01087899 67853-3 14442-2 0 9999 2 40021 98.0175 328.4080 0007553 254.1549 105.8898 16.06818099669462 NANOSATC-BR1 1 40024U 14033Q 26255.03234538 .00011732 00000+0 35951-3 0 9998 2 40024 98.0655 295.2654 0002529 216.4985 143.6084 15.33971735667280 QB50P1 1 40025U 14033R 26255.30912316 .00005065 00000+0 24271-3 0 9991 2 40025 98.0960 272.6484 0006887 290.8837 69.1658 15.19420886666258 QB50P2 1 40032U 14033Y 26255.24429334 .00004587 00000+0 24163-3 0 9993 2 40032 98.0800 257.6389 0005891 229.7352 130.3365 15.16155747665852 PERSEUS-M2 1 40037U 14033AD 26255.30461516 .00001640 00000+0 15253-3 0 9990 2 40037 98.0048 207.6661 0012606 18.7295 341.4386 14.95735606663808 PERSEUS-M1 1 40039U 14033AF 26255.27009535 .00001718 00000+0 15893-3 0 9993 2 40039 97.9709 200.8700 0011899 16.4925 343.6680 14.95869487663658 POLYITAN-1 1 40042U 14033AJ 26255.03092801 .00013689 00000+0 39241-3 0 9992 2 40042 98.0893 289.6848 0006273 188.9195 171.1936 15.36022140666913 TIGRISAT 1 40043U 14033AK 26254.95341068 .00001618 00000+0 19004-3 0 9999 2 40043 97.7956 43.0554 0049718 148.5511 211.8694 14.85423106658500 AEROCUBE 6A 1 40045U 14033AM 26255.23217353 .00003425 00000+0 28384-3 0 9991 2 40045 97.7332 61.3508 0039598 82.7127 277.8594 14.98899638659658 AEROCUBE 6B 1 40046U 14033AN 26255.01587164 .00004776 00000+0 37808-3 0 9999 2 40046 97.7325 61.0849 0041269 68.2809 292.2800 15.00406624659777 CANX-4 1 40055U 14034C 26255.15318691 .00000586 00000+0 82154-4 0 9992 2 40055 98.2969 133.6026 0014079 91.1035 269.1790 14.81390379657401 CANX-5 1 40056U 14034D 26255.08305531 .00000581 00000+0 81456-4 0 9993 2 40056 98.2973 133.5788 0014080 91.4629 268.8196 14.81407714648201 UKUBE-1 1 40074U 14037F 26255.26738625 .00005134 00000+0 28155-3 0 9995 2 40074 98.4259 267.7873 0001031 158.5643 201.5630 15.14702384661736 BRITE-PL2 (HEWELIUSZ) 1 40119U 14049B 26255.13141642 .00001745 00000+0 16542-3 0 9992 2 40119 97.9165 7.8481 0014047 175.1387 184.9972 14.94848763654436 AEROCUBE 5C 1 40965U 15058B 26254.58970063 .00001243 00000+0 11764-3 0 9991 2 40965 64.7678 353.6988 0137349 30.6239 330.2799 14.91854348378543 AEROCUBE 7 1 40966U 15058C 26254.60132137 .00001829 00000+0 15132-3 0 9990 2 40966 64.7622 334.0117 0126981 28.7265 332.0765 14.96290585378889 FOX-1A (AO-85) 1 40967U 15058D 26254.73229612 .00001238 00000+0 11851-3 0 9998 2 40967 64.7755 9.9285 0137863 24.1561 336.5933 14.91379557126475 SINOD-D 1 1 40968U 15058E 26254.63550507 .00001894 00000+0 15549-3 0 9994 2 40968 64.7767 348.0513 0126649 20.3449 340.2646 14.96486207129598 SNAP-3 ALICE 1 40970U 15058G 26255.25518667 .01013612 51697-3 19084-2 0 9998 2 40970 64.7368 156.9044 0015057 274.1297 85.8148 16.00421855130588 LMRST-SAT 1 40971U 15058H 26254.71032760 .00001180 00000+0 11450-3 0 9998 2 40971 64.7763 6.5048 0139287 26.0779 334.7261 14.90977907126457 SNAP-3 EDDIE 1 40972U 15058J 26255.08991160 .00972935 52093-3 13006-2 0 9994 2 40972 64.7332 146.8289 0014551 270.5356 89.4145 16.06164276132726 PROPCUBE 3 1 40973U 15058K 26255.26592810 .00001574 00000+0 13639-3 0 9996 2 40973 64.7687 340.3480 0131007 26.8608 333.9209 14.94753589127810 BISONSAT 1 40974U 15058L 26255.10769722 .00010753 00000+0 48693-3 0 9995 2 40974 64.7562 252.1813 0085912 10.0709 350.2112 15.17997446128806 SNAP-3 JIMI 1 40975U 15058M 26254.50277220 .00003075 00000+0 21009-3 0 9997 2 40975 64.7643 306.4742 0113141 21.9978 338.5939 15.03118263127190 PROPCUBE 1 (FLORA) 1 40976U 15058N 26254.74527852 .00001179 00000+0 11894-3 0 9997 2 40976 64.7745 26.8797 0137671 28.3383 332.5128 14.89598215129156 SINOD-D 3 1 40977U 15058P 26254.70859902 .00001761 00000+0 15332-3 0 9996 2 40977 64.7741 5.5127 0126328 25.1998 335.5206 14.94552234127681 RAVAN 1 41849U 16067B 26255.19499340 .00069089 00000+0 71530-3 0 9995 2 41849 97.9727 155.3943 0005786 72.9259 287.2631 15.64476753541253 CELTEE 1 1 41850U 16067C 26255.10015405 .00003561 00000+0 16698-3 0 9991 2 41850 98.0527 127.5829 0000937 53.2124 306.9195 15.20415776539087 OPTICUBE 04 1 41851U 16067D 26255.09730875 .00001567 00000+0 10074-3 0 9991 2 41851 98.0590 111.8938 0015378 178.2029 181.9257 15.09962951538282 AEROCUBE 8D 1 41852U 16067E 26255.09863567 .00005594 00000+0 22436-3 0 9996 2 41852 98.0528 131.8893 0003226 166.6518 193.4804 15.25460617539310 AEROCUBE 8C 1 41853U 16067F 26255.10914392 .00005160 00000+0 20555-3 0 9991 2 41853 98.0405 129.0187 0006480 112.4365 247.7559 15.25719521539315 CORVUS BC2 1 42846U 17042X 26255.20451422 .00002494 00000+0 17144-3 0 9996 2 42846 97.4165 53.2558 0013110 168.2048 191.9490 15.06745606500166 CORVUS BC1 1 42847U 17042Y 26255.25619241 .00002856 00000+0 19494-3 0 9999 2 42847 97.4202 54.1748 0012571 144.6441 215.5623 15.06904201500209 MAKERSAT 0 1 43016U 17073D 26254.63289954 .00021064 00000+0 52417-3 0 9991 2 43016 97.4467 137.9420 0098437 325.7310 33.7606 15.35343385479714 SIRION PATHFINDER-2 1 43759U 18099B 26255.04263203 .00002880 00000+0 15687-3 0 9992 2 43759 97.4174 302.0350 0008709 9.9109 350.2294 15.15175454425775 CORVUS BC4 1 43767U 18099K 26255.10231649 .00002756 00000+0 15922-3 0 9991 2 43767 97.3993 295.5382 0009674 66.1686 294.0558 15.13080715425546 M2 PATHFINDER 1 45727U 20037E 26255.08673266 .00002304 00000+0 16669-3 0 9994 2 45727 97.8132 87.3203 0010653 214.4998 145.5537 15.05005125338561 NETSAT-4 1 46504U 20068U 26255.28786949 .00015317 00000+0 30925-3 0 9996 2 46504 97.8601 270.7179 0005364 30.0477 330.1078 15.46600610329223 NETSAT-3 1 46505U 20068V 26255.03498872 .00014738 00000+0 30972-3 0 9993 2 46505 97.8659 268.5603 0005761 45.9312 314.2409 15.45435866329081 NETSAT-1 1 46506U 20068W 26255.32546987 .00008461 00000+0 24049-3 0 9991 2 46506 97.8778 262.1212 0006311 70.7893 289.4032 15.36425824328674 NETSAT-2 1 46507U 20068X 26254.99256123 .00016937 00000+0 31043-3 0 9993 2 46507 97.8610 270.6614 0004961 62.0679 298.1073 15.49376881329164 GREENCUBE (IO-117) 1 53109U 22080E 26255.02938321 -.00000003 00000+0 00000+0 0 9990 2 53109 70.1217 268.0398 0009219 270.7714 89.1889 6.42583747097648 SITRO-AIS 5 (KATYS) 1 57176U 23091L 26255.29565912 .00008700 00000+0 29080-3 0 9996 2 57176 97.4977 320.0944 0011681 147.8474 212.3481 15.31188211177664 SITRO-AIS 6 (CHIRKIN) 1 57192U 23091AC 26255.28780493 .00006787 00000+0 25572-3 0 9991 2 57192 97.4985 318.7228 0011936 152.8862 207.3003 15.27351119177578 SITRO-AIS 8 (ANOKHIN) 1 57193U 23091AD 26255.28108850 .00010613 00000+0 32217-3 0 9990 2 57193 97.4976 322.0466 0010790 143.3608 216.8375 15.34221750177797 SITRO-AIS 7 (FARTUSHNIY) 1 57194U 23091AE 26255.24431632 .00007055 00000+0 26853-3 0 9999 2 57194 97.4980 318.4553 0011833 154.2147 205.9684 15.27000901177558 SITRO-AIS 10 (BURDAEV) 1 57199U 23091AK 26255.30999554 .00015710 00000+0 37417-3 0 9998 2 57199 97.5005 328.0940 0007301 116.4278 243.7718 15.41665496178178 SITRO-AIS 9 (SHCHUKIN) 1 57201U 23091AM 26255.30161824 .00015518 00000+0 37682-3 0 9993 2 57201 97.5004 327.7412 0007546 116.9704 243.2314 15.41080165178150 SITRO-AIS 12 (SMIRENNIY) 1 57204U 23091AQ 26255.27528514 .00015877 00000+0 38150-3 0 9994 2 57204 97.5018 328.2377 0007191 111.8655 248.3357 15.41396141178178 SITRO-AIS 11 (SHEFFER) 1 57208U 23091AU 26255.26265951 .00016173 00000+0 38221-3 0 9999 2 57208 97.5016 328.5313 0007124 111.3332 248.8676 15.41895321178191 SITRO-AIS 25 1 59066U 24039R 26255.26145564 .00003105 00000+0 23957-3 0 9994 2 59066 95.3823 294.9049 0144186 24.2765 336.5164 14.94021999137721 SITRO-AIS 26 1 59067U 24039S 26255.34211843 .00002603 00000+0 20217-3 0 9996 2 59067 95.3823 294.8393 0144622 24.6591 336.1458 14.93804833137726 SITRO-AIS 27 1 59068U 24039T 26255.28740339 .00002238 00000+0 17270-3 0 9996 2 59068 95.3824 295.1148 0143573 23.2465 337.5168 14.94239815137747 SITRO-AIS 28 1 59071U 24039U 26255.26286426 .00003106 00000+0 23847-3 0 9992 2 59071 95.3827 295.1500 0143425 23.2039 337.5576 14.94275262137748 GRBBETA 1 60237U 24128C 26255.14709038 .00001946 00000+0 14212-3 0 9999 2 60237 61.9882 271.0415 0027965 153.7625 206.4892 15.07159723119374 OOV-CUBE (TUBSAT-30) 1 60240U 24128F 26255.07927957 .00001120 00000+0 97362-4 0 9999 2 60240 61.9933 282.5109 0032426 153.9439 206.3293 15.03087611119179 ROBUSTA-3A (MEDITERRANEE) 1 60243U 24128J 26255.28703819 .00003706 00000+0 22149-3 0 9996 2 60243 61.9844 259.9815 0028922 145.9027 214.3935 15.12690796119597 LASARSAT 1 62391U 24247Q 26255.03457441 .00034352 00000+0 56378-3 0 9996 2 62391 44.9719 132.2111 0008734 184.2264 175.8556 15.51841192096781 CROCUBE 1 62394U 24247T 26254.06680705 .00040936 00000+0 60575-3 0 9991 2 62394 44.9695 133.3082 0009251 188.0193 172.0553 15.54622235096687 FORESAIL-1 PRIME 1 66778U 25276DS 26255.14704338 .00003538 00000+0 17070-3 0 9992 2 66778 97.4132 326.8295 0003180 135.5170 224.6320 15.19324325043608 KNACKSAT-2 1 67683U 98067XZ 26255.31192122 .00056149 00000+0 48789-3 0 9994 2 67683 51.6258 213.5681 0007959 152.6345 207.5073 15.68476422033916 MARINA 1 69920U 26156BD 26254.66792044 .00001782 00000+0 18056-3 0 9993 2 69920 97.7446 154.0320 0006137 302.2770 57.7854 14.92152354009896